Location: Unspecified
(0.0000°N, 0.0000°E)
Time: 07:15:33
(UTC+00:00)

Oscar 18 - Visible Passes

Search period start: 09 June 2023 00:00
Search period end: 19 June 2023 00:00
Orbit: 773 x 789 km, 98.9° (Epoch: 08 June)

Date Brightness Start Highest point End Pass type
(mag) Time Alt. Az. Time Alt. Az. Time Alt. Az.
09 Jun 10.6 04:28:07 10° N 04:33:11 65° WNW 04:35:47 29° SSW visible
10 Jun 11.3 03:56:14 10° NNE 04:01:10 50° ESE 04:03:16 31° SSE visible
11 Jun 12.8 03:25:29 10° ENE 03:29:10 20° ESE 03:30:44 18° SE visible
11 Jun 11.8 05:04:05 10° NNW 05:08:09 24° WNW 05:11:16 14° WSW visible
12 Jun 10.6 04:31:07 10° N 04:36:08 60° WNW 04:38:45 28° SSW visible
13 Jun 11.2 03:59:09 10° NNE 04:04:07 53° ESE 04:06:14 32° SSE visible
14 Jun 12.7 03:28:17 10° NE 03:32:07 22° ESE 03:33:42 19° SE visible
14 Jun 11.8 05:07:11 10° NNW 05:11:06 22° WNW 05:14:15 13° WSW visible
15 Jun 10.7 04:34:06 10° N 04:39:05 56° WNW 04:41:43 27° SW visible
16 Jun 11.1 04:02:03 10° NNE 04:07:04 58° ESE 04:09:12 33° SSE visible
17 Jun 12.6 03:31:05 10° NE 03:35:03 23° ESE 03:36:40 20° SE visible
17 Jun 11.9 05:10:17 10° NNW 05:14:02 21° WNW 05:17:12 12° WSW visible
18 Jun 10.8 04:37:05 10° N 04:42:02 52° WNW 04:44:40 26° SW visible
